Highgate, VT

4:53 PM EDT on September 20, 2019 (GMT -0400)
Franklin County State

Weather History for KFSO - August, 2019

Change the Weather History Date:

Saturday, August 24, 2019

  Actual Average (KPBG) Record (KPBG)
Temperature  
Mean Temperature 60 °F -  
Max Temperature 72 °F 74 °F 90 °F (1969)
Min Temperature 49 °F 56 °F 44 °F (1987)
Degree Days  
Heating Degree Days 4    
Growing Degree Days 10 (Base 50)    
Moisture  
Dew Point 55 °F    
Average Humidity 83    
Maximum Humidity 96    
Minimum Humidity 57    
Precipitation  
Precipitation 0.00 in - - ()
Sea Level Pressure  
Sea Level Pressure 30.24 in    
Wind  
Wind Speed 1 mph (NW)    
Max Wind Speed 6 mph    
Max Gust Speed -    
Visibility 10 miles    
Events      
Averages and records for this station are not official NWS values.
T = Trace of Precipitation, MM = Missing Value Source: NWS Daily Summary

Daily Weather History Graph

Daily Weather History Graph

Search for Another Location

Airport or City:

Astronomy

Aug. 24, 2019 Rise Set
Actual Time 6:04 AM EDT 7:44 PM EDT
Civil Twilight 5:33 AM EDT 8:14 PM EDT
Nautical Twilight 4:55 AM EDT 8:52 PM EDT
Astronomical Twilight 4:15 AM EDT 9:32 PM EDT
Moon No Moon Rise 3:03 PM EDT (8/24)
Length of Visible Light 14h 41m
Length of Day
13h 39m
Last Quarter, 39% of the Moon is Illuminated
Aug 24
Last Quarter
Aug 30
New
Sep 5
First Quarter
Sep 14
Full
Sep 21
Last Quarter

Hourly Weather History & Observations

Time (EDT) Temp. Dew Point Humidity Pressure Visibility Wind Dir Wind Speed Gust Speed Precip Events Conditions
12:16 AM 54.9 °F 52.3 °F 91% 30.11 in 10.0 mi Calm Calm - N/A   Clear
12:36 AM 53.8 °F 52.0 °F 94% 30.11 in 10.0 mi Calm Calm - N/A   Clear
12:55 AM 53.8 °F 52.3 °F 95% 30.11 in 10.0 mi Calm Calm - N/A   Clear
1:15 AM 53.4 °F 52.0 °F 95% 30.13 in 10.0 mi Calm Calm - N/A   Clear
1:35 AM 53.2 °F 52.0 °F 95% 30.13 in 10.0 mi Calm Calm - N/A   Clear
1:56 AM 53.1 °F 51.8 °F 95% 30.12 in 10.0 mi Calm Calm - N/A   Clear
2:15 AM 53.4 °F 52.0 °F 95% 30.12 in 10.0 mi Calm Calm - N/A   Clear
2:35 AM 53.1 °F 51.8 °F 95% 30.13 in 10.0 mi Calm Calm - N/A   Clear
2:56 AM 52.0 °F 50.5 °F 95% 30.14 in 10.0 mi Calm Calm - N/A   Clear
3:16 AM 51.8 °F 50.5 °F 95% 30.14 in 10.0 mi Calm Calm - N/A   Clear
3:35 AM 51.1 °F 50.0 °F 96% 30.14 in 10.0 mi Calm Calm - N/A   Clear
3:55 AM 51.3 °F 50.0 °F 95% 30.15 in 10.0 mi Calm Calm - N/A   Clear
4:16 AM 50.9 °F 49.6 °F 95% 30.16 in 10.0 mi Calm Calm - N/A   Clear
4:35 AM 50.2 °F 49.1 °F 96% 30.16 in 10.0 mi Calm Calm - N/A   Clear
4:56 AM 50.9 °F 49.6 °F 95% 30.17 in 10.0 mi Calm Calm - N/A   Clear
5:35 AM 50.0 °F 48.7 °F 95% 30.18 in 10.0 mi Calm Calm - N/A   Clear
5:56 AM 49.8 °F 48.6 °F 95% 30.19 in 10.0 mi Calm Calm - N/A   Scattered Clouds
6:16 AM 51.3 °F 50.0 °F 95% 30.19 in 10.0 mi Calm Calm - N/A   Overcast
6:35 AM 52.7 °F 51.3 °F 95% 30.20 in 10.0 mi Calm Calm - N/A   Overcast
6:56 AM 54.1 °F 52.9 °F 95% 30.20 in 10.0 mi Calm Calm - N/A   Overcast
7:15 AM 54.5 °F 53.2 °F 96% 30.21 in 10.0 mi Calm Calm - N/A   Overcast
7:36 AM 55.4 °F 54.3 °F 96% 30.22 in 10.0 mi Calm Calm - N/A   Overcast
7:55 AM 56.7 °F 55.4 °F 96% 30.23 in 10.0 mi Calm Calm - N/A   Overcast
8:55 AM 58.5 °F 55.6 °F 90% 30.25 in 10.0 mi Calm Calm - N/A   Overcast
9:16 AM 59.5 °F 56.3 °F 89% 30.25 in 10.0 mi Calm Calm - N/A   Overcast
9:56 AM 61.2 °F 57.2 °F 87% 30.25 in 10.0 mi Calm Calm - N/A   Overcast
10:15 AM 61.9 °F 57.4 °F 85% 30.25 in 10.0 mi Calm Calm - N/A   Overcast
10:35 AM 62.6 °F 57.6 °F 84% 30.25 in 10.0 mi Calm Calm - N/A   Overcast
10:55 AM 63.0 °F 57.2 °F 81% 30.26 in 10.0 mi Calm Calm - N/A   Overcast
11:15 AM 63.9 °F 57.0 °F 78% 30.26 in 10.0 mi Calm Calm - N/A   Overcast
11:36 AM 64.6 °F 56.8 °F 76% 30.26 in 10.0 mi Calm Calm - N/A   Overcast
11:55 AM 64.8 °F 55.4 °F 72% 30.27 in 10.0 mi Calm Calm - N/A   Overcast
12:16 PM 65.3 °F 55.6 °F 71% 30.27 in 10.0 mi WNW 3.5 mph - N/A   Overcast
12:35 PM 65.5 °F 56.1 °F 72% 30.27 in 10.0 mi Calm Calm - N/A   Overcast
12:56 PM 65.7 °F 55.2 °F 69% 30.27 in 10.0 mi WNW 3.5 mph - N/A   Overcast
1:16 PM 66.2 °F 56.3 °F 70% 30.27 in 10.0 mi Calm Calm - N/A   Overcast
1:36 PM 66.2 °F 55.9 °F 69% 30.28 in 10.0 mi Calm Calm - N/A   Overcast
1:55 PM 66.4 °F 56.1 °F 69% 30.28 in 10.0 mi NNW 3.5 mph - N/A   Overcast
2:15 PM 66.9 °F 56.5 °F 69% 30.28 in 10.0 mi Calm Calm - N/A   Overcast
2:36 PM 67.6 °F 57.0 °F 69% 30.28 in 10.0 mi Calm Calm - N/A   Mostly Cloudy
2:55 PM 70.5 °F 57.2 °F 63% 30.28 in 10.0 mi WNW 3.5 mph - N/A   Scattered Clouds
3:16 PM 70.3 °F 56.7 °F 62% 30.28 in 10.0 mi Calm Calm - N/A   Scattered Clouds
3:35 PM 71.8 °F 57.9 °F 62% 30.28 in 10.0 mi NW 4.6 mph - N/A   Mostly Cloudy
3:56 PM 72.0 °F 57.0 °F 59% 30.27 in 10.0 mi North 5.8 mph - N/A   Scattered Clouds
4:15 PM 71.8 °F 56.8 °F 59% 30.27 in 10.0 mi WNW 4.6 mph - N/A   Clear
4:35 PM 71.6 °F 55.8 °F 57% 30.27 in 10.0 mi WNW 4.6 mph - N/A   Clear
4:56 PM 72.3 °F 57.4 °F 59% 30.27 in 10.0 mi West 4.6 mph - N/A   Clear
5:15 PM 71.6 °F 56.5 °F 59% 30.27 in 10.0 mi North 4.6 mph - N/A   Clear
5:36 PM 72.1 °F 57.0 °F 59% 30.27 in 10.0 mi Calm Calm - N/A   Clear
5:55 PM 71.6 °F 57.0 °F 60% 30.27 in 10.0 mi Calm Calm - N/A   Clear
6:16 PM 71.6 °F 57.4 °F 61% 30.27 in 10.0 mi North 3.5 mph - N/A   Clear
6:36 PM 71.2 °F 57.9 °F 63% 30.27 in 10.0 mi NNW 3.5 mph - N/A   Clear
6:56 PM 70.5 °F 58.5 °F 66% 30.28 in 10.0 mi NNW 3.5 mph - N/A   Clear
7:16 PM 68.5 °F 58.1 °F 69% 30.28 in 5.0 mi Calm Calm - N/A   Haze
7:35 PM 65.8 °F 59.0 °F 79% 30.28 in 10.0 mi North 3.5 mph - N/A   Clear
7:56 PM 64.8 °F 57.9 °F 78% 30.28 in 10.0 mi Calm Calm - N/A   Clear
8:15 PM 61.9 °F 58.5 °F 89% 30.29 in 10.0 mi Calm Calm - N/A   Clear
8:35 PM 60.8 °F 58.1 °F 91% 30.30 in 7.0 mi Calm Calm - N/A   Clear
8:56 PM 60.3 °F 58.3 °F 93% 30.30 in 10.0 mi Calm Calm - N/A   Clear
9:15 PM 59.4 °F 57.9 °F 95% 30.31 in 10.0 mi Calm Calm - N/A   Clear
9:36 PM 59.2 °F 57.9 °F 96% 30.31 in 10.0 mi Calm Calm - N/A   Clear
9:56 PM 58.1 °F 56.8 °F 96% 30.31 in 10.0 mi Calm Calm - N/A   Clear
10:15 PM 58.5 °F 57.2 °F 96% 30.32 in 10.0 mi Calm Calm - N/A   Clear
10:35 PM 57.0 °F 55.6 °F 95% 30.32 in 10.0 mi Calm Calm - N/A   Clear
10:55 PM 57.2 °F 55.8 °F 95% 30.32 in 10.0 mi Calm Calm - N/A   Clear
11:15 PM 57.2 °F 55.8 °F 95% 30.32 in 10.0 mi Calm Calm - N/A   Clear
11:35 PM 57.0 °F 55.8 °F 96% 30.32 in 10.0 mi Calm Calm - N/A   Clear
11:56 PM 58.5 °F 57.2 °F 96% 30.32 in 7.0 mi Calm Calm - N/A   Clear